Location: Easthampton
(42.2676°N, 72.6690°W)
Time: 07:40:03
(UTC+00:00)

Gurwin Techsat 1B - Pass Details

Date: 09 April 2023
Orbit: 811 x 813 km, 98.9° (Epoch: 02 June)

Event Time Altitude Azimuth Distance (km) Brightness Sun altitude
Rises 09:01:40 0° 1° (N) 3,348 12.2 -14.6°
Reaches altitude 10° 09:04:26 10° 348° (NNW) 2,412 11.2 -14.2°
Maximum altitude 09:08:32 23° 297° (WNW) 1,666 9.9 -13.5°
Enters shadow 09:10:52 17° 262° (W) 1,939 10.0 -13.1°
